Wind_Speed
7 6 6 6 6 6 7 7 7 7 8 9 10 12 13 13 16 19 21 22 23 25 27 27 30 29 27 29 29 31 35 46 49 44 42 24 28 19 16 15 10 26 26 23 20
3 3 2 2 2 3 4 4 5 6 7 9 11 14 15 15 18 21 22 23 26 26 29 30 29 32 31 32 33 36 44 51 47 42 40 29 29 26 19 10 5 17 20 18 18
1 1 1 1 2 3 3 4 5 7 9 11 13 16 17 19 22 29 26 26 26 29 32 30 33 33 36 34 36 41 52 48 47 39 40 35 34 28 24 13 6 11 26 22 20
1 1 2 3 3 3 4 6 8 10 12 14 16 17 17 17 16 21 27 30 30 29 29 31 31 35 40 38 38 41 50 50 48 44 39 38 35 35 31 22 11 4 18 23 23
3 3 3 4 4 5 6 8 9 12 14 15 16 17 18 17 17 20 23 27 31 34 32 33 30 33 37 40 37 43 51 49 50 48 46 40 41 37 39 27 20 15 16 27 23
5 5 5 5 5 6 6 8 11 12 13 15 18 20 21 21 19 21 20 19 27 33 33 30 33 29 38 35 38 45 53 50 46 46 45 42 46 39 43 36 30 24 15 32 27
5 6 6 5 5 5 7 9 11 13 14 17 18 20 19 23 24 22 17 16 16 25 35 31 30 26 32 30 38 42 49 46 50 46 45 36 44 46 40 43 39 33 22 29 27
5 6 6 5 5 6 8 9 11 13 17 15 15 17 22 24 28 28 27 30 34 34 27 34 31 34 36 35 25 35 41 42 57 46 47 32 51 48 50 47 47 42 34 28 33
5 5 6 6 6 6 7 8 8 12 14 12 23 17 27 21 26 29 32 34 39 33 22 23 25 29 37 34 29 36 30 36 55 49 43 36 51 48 51 50 48 50 43 36 34
5 5 6 6 6 6 6 6 8 11 13 11 24 14 26 26 25 28 31 36 37 40 25 16 28 28 33 32 32 38 40 37 36 34 41 40 49 51 48 47 45 48 53 48 43
4 5 4 4 4 5 6 8 6 8 13 19 22 24 27 27 27 27 29 34 41 39 19 15 17 33 34 36 30 37 25 35 33 31 25 31 49 49 43 39 43 39 49 55 49
4 4 4 4 3 5 5 5 6 3 14 18 20 20 25 26 28 24 27 33 37 31 20 18 24 25 24 25 30 32 32 26 31 22 21 31 34 41 46 39 37 37 36 55 59
5 4 5 5 4 4 5 6 5 5 9 17 16 21 23 21 19 25 30 34 30 27 14 20 26 17 20 24 26 29 27 33 17 18 30 24 32 39 34 37 43 36 34 31 43
5 4 4 4 5 5 6 5 6 3 4 9 13 18 17 23 18 24 28 29 22 26 18 11 11 14 19 22 25 27 31 27 21 14 15 11 10 32 33 29 32 41 39 32 32
6 5 3 3 4 6 7 8 7 4 4 6 11 13 12 21 17 23 27 29 21 17 18 22 25 15 12 17 19 29 31 31 26 22 21 28 6 25 32 37 31 37 40 42 39
6 6 3 3 4 5 6 6 6 2 1 2 7 11 15 20 17 21 26 29 19 24 15 16 19 14 17 18 17 16 26 22 26 19 7 29 9 15 18 30 39 33 38 39 34
7 6 5 3 3 4 4 6 1 4 3 5 7 10 11 22 19 21 28 33 36 36 31 22 17 18 17 10 18 17 17 5 8 6 4 5 13 20 13 16 15 33 23 36 31
8 7 6 5 4 4 4 3 2 2 2 7 5 5 8 20 18 22 25 29 32 32 15 20 13 23 29 29 5 10 15 9 5 5 4 13 9 1 17 22 21 19 15 8 22
9 8 7 6 5 4 3 1 1 2 5 9 4 4 9 16 15 19 21 21 30 31 26 15 11 17 25 9 5 8 10 16 16 4 2 6 9 15 5 1 1 4 5 7 10
11 9 7 7 5 5 3 2 2 2 5 5 3 2 11 15 15 17 17 12 25 25 28 21 10 19 19 15 21 10 4 6 10 3 4 4 7 12 19 21 15 12 13 10 4
12 10 9 9 8 6 5 4 5 4 4 3 2 3 10 13 14 12 13 11 21 26 23 20 16 14 19 30 30 30 27 10 4 3 1 2 8 9 12 18 22 25 22 17 11
13 12 12 11 9 7 6 6 4 8 8 2 3 7 8 11 12 5 13 13 18 20 21 22 13 9 13 10 23 23 23 25 10 9 7 6 6 19 8 11 13 26 25 21 21
16 14 11 10 9 10 8 7 7 7 9 8 9 9 8 9 10 9 11 13 14 18 18 20 13 8 7 5 7 23 17 15 10 12 7 3 8 22 26 12 4 9 14 23 22
18 13 16 14 14 11 9 9 6 5 4 9 5 6 6 8 9 10 17 13 21 19 13 12 4 7 4 11 16 18 13 14 11 6 11 12 20 22 20 21 21 20 15 11 11
20 17 15 10 15 12 12 8 7 6 5 4 2 6 7 9 18 12 18 22 21 11 9 6 3 4 10 12 9 15 17 15 12 10 8 18 23 21 13 15 19 20 9 16 9
23 21 18 15 15 13 15 13 10 8 9 9 11 7 11 14 17 21 21 22 19 17 17 6 4 12 16 6 12 16 11 9 11 14 11 6 15 13 8 6 3 3 1 2 5
24 23 21 17 18 16 15 9 7 8 12 12 12 16 17 14 17 20 22 25 23 13 10 7 5 10 4 15 8 7 18 11 8 8 3 12 11 5 7 9 6 4 7 10 13
Wind_Direction
267 262 262 258 259 262 258 261 262 268 277 280 285 286 286 286 284 281 279 275 266 262 257 255 254 248 237 232 231 233 233 242 246 244 248 244 236 219 239 287 216 213 228 241 220
267 279 276 267 262 265 265 277 289 293 293 297 298 296 297 297 290 282 278 273 269 263 257 250 247 247 241 233 225 225 232 238 246 249 254 250 241 235 244 248 268 220 226 228 218
177 221 243 269 277 274 283 290 295 304 309 304 301 298 300 299 293 286 282 277 272 265 260 251 243 240 240 237 228 227 237 241 242 244 244 246 246 239 245 226 206 247 240 239 233
222 277 313 306 299 306 314 319 318 312 313 314 312 311 308 304 300 292 294 287 280 274 265 256 243 238 240 234 229 235 240 244 246 243 246 237 236 234 234 207 224 229 226 250 239
301 311 307 305 314 322 326 322 323 330 323 317 319 318 320 320 309 292 286 282 276 270 259 255 252 241 240 237 236 231 236 238 245 245 245 246 237 238 229 213 235 222 232 225 247
306 315 317 315 325 333 327 333 334 324 326 327 339 346 347 344 332 320 306 287 273 268 264 250 249 240 241 239 232 234 242 244 243 246 246 245 238 243 224 210 220 226 221 211 228
308 311 310 313 325 328 341 341 336 335 335 352 354 356 352 1 350 345 337 328 308 284 266 250 239 234 233 239 232 232 241 240 240 237 241 241 247 235 221 219 214 219 204 200 214
297 301 305 317 333 345 346 345 342 343 352 353 6 13 18 8 11 6 360 355 348 328 295 268 246 227 231 236 223 235 239 247 232 233 235 229 243 227 219 228 219 216 210 202 204
300 310 319 329 334 342 346 348 351 359 358 10 12 18 21 17 16 2 353 350 343 335 308 261 245 232 225 239 243 232 240 233 239 233 234 226 240 231 224 237 233 218 221 209 202
304 314 323 329 326 331 336 350 11 4 24 23 17 20 7 10 10 359 348 341 334 338 323 270 242 242 234 229 223 226 235 239 243 245 233 235 237 236 233 238 249 233 219 219 213
293 297 309 310 309 315 351 358 6 29 34 40 25 19 17 10 9 353 343 330 333 329 301 289 252 238 234 239 240 231 238 242 250 247 237 243 239 238 238 250 248 249 236 225 223
279 299 313 312 328 335 343 337 355 23 63 48 32 25 20 4 356 341 336 333 333 333 306 298 261 247 246 244 243 237 245 256 250 248 241 251 246 249 246 243 247 248 245 231 225
274 303 303 314 343 350 316 331 1 82 80 46 40 30 20 359 348 344 338 338 342 345 335 288 279 274 247 249 243 242 249 247 265 240 243 263 260 251 242 250 243 250 250 241 240
269 283 290 317 334 338 333 341 11 105 102 40 46 23 20 341 6 354 349 350 356 350 331 331 314 271 253 245 240 246 240 253 270 286 273 255 287 256 251 250 243 241 246 247 245
266 274 280 300 322 333 345 355 17 73 57 17 31 28 12 358 355 358 354 351 356 356 340 328 318 307 256 235 238 249 251 247 256 263 291 264 278 267 246 242 230 234 240 249 245
261 267 266 278 307 327 340 350 30 105 312 359 26 18 9 357 360 356 356 3 13 4 22 358 26 346 358 230 216 228 243 242 253 272 262 257 223 266 267 245 233 228 234 242 240
258 262 260 252 285 303 331 0 51 66 349 328 358 15 10 0 2 3 0 14 22 5 3 10 4 12 342 243 203 221 225 218 216 214 217 167 192 249 264 252 248 234 248 249 250
250 251 256 243 257 290 336 18 131 104 338 309 326 351 5 3 2 7 3 17 23 13 3 356 341 359 351 353 247 206 187 180 186 185 247 221 191 40 246 258 265 242 246 250 227
242 240 243 243 251 258 295 221 139 179 280 318 315 332 352 353 349 3 2 9 15 9 7 344 341 13 352 24 56 168 207 223 236 265 273 191 228 218 286 239 109 178 214 242 218
236 236 233 235 241 234 247 203 183 220 283 315 329 333 347 349 348 358 5 352 4 6 357 352 316 8 32 59 54 59 11 149 181 176 206 203 73 38 53 72 115 145 169 190 156
229 228 222 227 234 224 240 207 176 191 276 318 304 298 341 333 334 342 347 357 359 356 1 9 4 19 53 39 36 37 31 25 148 80 211 177 104 43 50 67 114 132 138 165 177
226 225 224 225 225 224 232 231 218 210 242 300 300 284 294 323 327 320 345 345 346 356 360 5 353 351 34 67 39 32 29 32 36 344 4 316 124 9 55 95 107 137 146 141 145
225 229 228 229 227 221 227 241 245 237 225 217 234 256 282 326 326 307 327 325 307 343 359 352 7 357 351 355 322 4 30 7 2 15 10 21 327 356 359 347 66 137 148 150 143
225 223 226 226 224 227 225 229 225 234 224 234 248 259 273 292 302 295 312 309 321 330 315 327 22 32 24 313 323 328 340 358 334 329 326 312 330 346 350 346 342 345 3 208 161
219 226 223 221 220 220 228 216 219 214 233 252 267 253 284 296 304 304 303 317 332 343 335 303 274 308 311 326 324 307 313 319 326 323 303 318 341 351 11 3 359 327 358 346 289
219 221 224 223 223 214 223 235 236 232 235 239 263 258 265 281 287 297 306 317 320 337 339 320 252 309 310 321 321 326 41 12 2 333 300 12 55 23 357 14 98 99 342 5 358
217 223 225 222 227 225 229 231 223 223 226 244 253 262 269 280 290 290 297 301 303 312 331 315 316 327 304 334 332 110 10 18 44 24 96 69 53 37 73 85 100 157 206 247 254
Height
3099 3099 3098 3098 3099 3100 3101 3102 3101 3102 3102 3102 3102 3102 3103 3104 3103 3102 3102 3103 3103 3103 3105 3107 3108 3111 3113 3116 3120 3120 3120 3109 3110 3117 3118 3133 3133 3138 3138 3138 3136 3137 3137 3140 3143
3098 3097 3097 3097 3098 3099 3099 3099 3099 3099 3099 3099 3098 3098 3098 3099 3098 3097 3099 3097 3095 3096 3097 3098 3101 3103 3106 3108 3110 3112 3108 3099 3105 3115 3118 3126 3129 3131 3132 3135 3134 3136 3134 3137 3139
3096 3097 3097 3097 3097 3097 3097 3097 3097 3096 3095 3095 3095 3094 3095 3094 3093 3090 3090 3090 3091 3091 3090 3091 3093 3094 3095 3100 3103 3102 3095 3100 3102 3108 3114 3118 3123 3126 3127 3129 3133 3135 3131 3132 3136
3095 3095 3095 3096 3096 3095 3095 3094 3093 3093 3092 3091 3091 3090 3089 3089 3090 3084 3083 3083 3084 3085 3085 3083 3085 3087 3086 3090 3095 3095 3091 3094 3098 3103 3107 3110 3115 3119 3122 3124 3129 3131 3133 3131 3132
3094 3094 3093 3094 3093 3092 3091 3091 3090 3089 3088 3088 3087 3086 3084 3084 3083 3080 3078 3076 3075 3074 3075 3076 3078 3079 3078 3082 3087 3086 3082 3088 3090 3095 3100 3107 3107 3110 3114 3121 3125 3127 3128 3129 3130
3093 3092 3091 3091 3090 3089 3089 3088 3087 3087 3086 3084 3082 3079 3077 3078 3075 3071 3069 3069 3067 3066 3067 3069 3069 3072 3068 3070 3075 3078 3075 3078 3084 3088 3092 3097 3098 3106 3105 3115 3117 3121 3122 3123 3125
3091 3090 3090 3089 3088 3088 3087 3086 3085 3083 3082 3079 3077 3075 3072 3071 3067 3065 3063 3062 3061 3059 3056 3060 3060 3064 3063 3062 3066 3067 3065 3069 3071 3078 3082 3092 3087 3094 3097 3104 3108 3112 3116 3118 3121
3090 3089 3088 3087 3086 3085 3084 3083 3082 3080 3077 3076 3075 3071 3068 3064 3061 3060 3058 3057 3055 3053 3050 3051 3054 3053 3054 3057 3058 3058 3058 3058 3057 3069 3073 3085 3070 3085 3088 3091 3098 3104 3110 3113 3115
3087 3087 3086 3085 3084 3083 3082 3082 3080 3078 3075 3072 3070 3066 3066 3064 3061 3059 3056 3054 3052 3046 3044 3044 3045 3046 3049 3050 3052 3053 3048 3050 3051 3062 3069 3075 3063 3073 3079 3082 3088 3095 3102 3106 3110
3085 3084 3083 3083 3082 3082 3081 3080 3077 3076 3073 3070 3069 3068 3065 3062 3059 3057 3054 3051 3047 3043 3040 3038 3038 3037 3039 3041 3036 3042 3042 3043 3044 3055 3061 3065 3058 3063 3069 3076 3079 3085 3090 3097 3102
3083 3083 3082 3083 3081 3080 3078 3076 3078 3076 3072 3070 3068 3066 3063 3061 3058 3056 3052 3049 3044 3038 3034 3033 3030 3026 3030 3032 3036 3041 3041 3042 3046 3053 3056 3055 3056 3054 3062 3068 3072 3077 3082 3086 3091
3081 3080 3080 3080 3080 3078 3076 3075 3073 3074 3071 3069 3067 3066 3063 3060 3057 3055 3051 3047 3041 3032 3028 3028 3024 3024 3026 3029 3030 3034 3036 3035 3041 3047 3050 3052 3050 3050 3058 3062 3067 3071 3074 3078 3083
3078 3077 3077 3077 3076 3076 3075 3073 3071 3069 3070 3069 3067 3065 3064 3063 3059 3054 3049 3044 3036 3029 3025 3024 3020 3021 3022 3024 3027 3028 3033 3035 3039 3041 3041 3043 3042 3041 3046 3055 3061 3064 3067 3071 3076
3076 3075 3075 3074 3076 3073 3073 3071 3068 3067 3069 3071 3067 3066 3064 3061 3059 3054 3048 3044 3036 3029 3023 3020 3018 3015 3015 3017 3023 3024 3031 3034 3034 3038 3037 3042 3037 3037 3041 3044 3050 3056 3060 3063 3067
3074 3073 3073 3071 3071 3071 3071 3068 3066 3066 3071 3071 3068 3067 3064 3062 3060 3053 3049 3041 3035 3029 3026 3020 3013 3010 3010 3013 3019 3020 3028 3030 3032 3036 3035 3035 3041 3028 3034 3034 3041 3046 3051 3053 3058
3071 3071 3070 3069 3069 3068 3068 3067 3066 3068 3069 3069 3068 3066 3063 3060 3057 3053 3048 3042 3033 3027 3024 3018 3013 3011 3006 3009 3013 3017 3022 3027 3032 3033 3031 3029 3036 3026 3028 3031 3037 3042 3046 3046 3049
3068 3068 3067 3067 3067 3067 3066 3066 3067 3066 3070 3069 3066 3064 3063 3059 3056 3052 3046 3039 3033 3024 3018 3016 3013 3011 3008 3004 3010 3013 3017 3025 3030 3031 3026 3025 3030 3025 3027 3029 3034 3039 3039 3037 3039
3066 3065 3065 3065 3065 3065 3064 3066 3065 3067 3066 3065 3064 3063 3061 3058 3056 3052 3048 3043 3039 3035 3027 3021 3015 3012 3008 3005 3007 3009 3013 3017 3020 3018 3020 3022 3024 3025 3022 3025 3030 3031 3031 3032 3035
3063 3063 3063 3063 3062 3063 3064 3063 3063 3064 3065 3063 3063 3061 3061 3059 3057 3052 3049 3046 3042 3037 3035 3027 3020 3017 3014 3006 3008 3007 3011 3015 3017 3021 3022 3017 3019 3019 3017 3018 3020 3019 3028 3032 3032
3060 3060 3060 3060 3061 3061 3062 3062 3061 3062 3062 3062 3061 3061 3059 3058 3055 3052 3049 3047 3043 3041 3037 3033 3025 3020 3013 3005 3008 3009 3012 3013 3015 3019 3017 3013 3017 3021 3016 3014 3017 3020 3028 3033 3031
3056 3057 3057 3057 3059 3059 3059 3059 3059 3060 3060 3061 3060 3059 3059 3057 3055 3052 3051 3049 3044 3040 3037 3033 3030 3025 3017 3013 3016 3015 3012 3010 3011 3014 3014 3014 3019 3021 3019 3016 3014 3017 3019 3025 3030
3052 3054 3054 3055 3057 3055 3055 3056 3057 3057 3058 3058 3058 3058 3057 3055 3053 3051 3050 3048 3045 3041 3036 3034 3030 3027 3025 3023 3022 3023 3021 3018 3016 3018 3018 3014 3018 3017 3017 3015 3016 3013 3015 3020 3020
3048 3049 3050 3051 3052 3052 3053 3053 3054 3054 3055 3055 3056 3056 3055 3054 3053 3050 3048 3047 3044 3042 3038 3036 3033 3030 3027 3026 3024 3023 3024 3025 3024 3020 3022 3026 3019 3018 3017 3014 3013 3014 3016 3015 3015
3044 3045 3045 3046 3047 3048 3049 3050 3050 3051 3052 3052 3053 3053 3053 3052 3051 3048 3046 3044 3042 3041 3039 3038 3037 3036 3038 3037 3032 3026 3024 3024 3023 3022 3021 3022 3020 3017 3015 3013 3011 3012 3013 3009 3012
3038 3039 3040 3041 3042 3044 3046 3046 3047 3048 3049 3050 3051 3051 3051 3049 3047 3045 3043 3041 3040 3038 3037 3036 3035 3035 3034 3032 3030 3027 3024 3022 3022 3022 3022 3020 3019 3016 3015 3012 3009 3010 3014 3017 3014
3032 3034 3036 3037 3038 3040 3041 3042 3043 3045 3046 3047 3047 3048 3047 3047 3046 3043 3041 3039 3037 3035 3034 3034 3033 3032 3031 3030 3028 3025 3023 3021 3021 3020 3020 3021 3020 3017 3015 3015 3019 3019 3019 3019 3015
3026 3028 3031 3033 3034 3036 3037 3039 3040 3041 3042 3043 3044 3044 3044 3043 3042 3041 3038 3036 3035 3033 3031 3030 3030 3029 3027 3027 3025 3026 3024 3023 3022 3020 3019 3020 3023 3021 3018 3014 3014 3014 3015 3014 3013